This is the latest recevied weather packets stored in our database for station/object XE1E-15. If no packets are shown the sender has not sent any weather packets the latest 10 day(s).
| Time | Temp. | Humidity | Pressure | Rain* | Wind** | Luminosity | Snow |
|---|---|---|---|---|---|---|---|
| 1777193039 | 23.89° C | 50% | 1021.3 hPa | - | - | - | - |
| 1777193007 | 23.89° C | 50% | 1021.3 hPa | - | - | - | - |
| 1777192046 | 23.33° C | 51% | 1021.4 hPa | - | - | - | - |
| 1777191086 | 23.89° C | 50% | 1021.7 hPa | - | - | - | - |
| 1777190126 | 23.33° C | 51% | 1021.9 hPa | - | - | - | - |
| 1777189166 | 23.33° C | 50% | 1022.1 hPa | - | - | - | - |
| 1777188688 | 23.33° C | 50% | 1022.2 hPa | - | - | - | - |
| 1777187728 | 23.33° C | 52% | 1022.6 hPa | - | - | - | - |
| 1777186768 | 22.22° C | 54% | 1022.6 hPa | - | - | - | - |
| 1777185808 | 22.78° C | 54% | 1022.6 hPa | - | - | - | - |
| 1777184848 | 22.22° C | 55% | 1022.6 hPa | - | - | - | - |
| 1777183888 | 23.33° C | 53% | 1022.8 hPa | - | - | - | - |
| 1777182928 | 23.89° C | 51% | 1022.7 hPa | - | - | - | - |
| 1777181968 | 23.89° C | 52% | 1022.7 hPa | - | - | - | - |
| 1777181007 | 24.44° C | 48% | 1022.5 hPa | - | - | - | - |
| 1777180047 | 25° C | 46% | 1022.4 hPa | - | - | - | - |
| 1777179087 | 25° C | 46% | 1022.3 hPa | - | - | - | - |
| 1777178127 | 24.44° C | 46% | 1022.2 hPa | - | - | - | - |
| 1777177167 | 25° C | 48% | 1022.2 hPa | - | - | - | - |
| 1777176207 | 25° C | 51% | 1022.1 hPa | - | - | - | - |
| 1777175247 | 25° C | 51% | 1022.1 hPa | - | - | - | - |
| 1777174287 | 25° C | 52% | 1021.8 hPa | - | - | - | - |
| 1777173327 | 24.44° C | 52% | 1021.6 hPa | - | - | - | - |
| 1777172366 | 25° C | 42% | 1021.6 hPa | - | - | - | - |
| 1777171406 | 25° C | 41% | 1021.3 hPa | - | - | - | - |
* Rain since midnight (hover to see other rain measurements)
** Current wind speed in m/s (hover to see current wind gust speed)